User: anonymous   Login
Location: Meanaryar
(48.4161°N, 4.7315°W)
Time: 20:02:16
(UTC+00:00)
Language:

CZ-2C R/B - Orbit

View from above orbital plane
View from above orbital plane
View from above satellite
View from above satellite

Ground track
Ground track

The orbit data is extracted from the following two-line orbital elements,

1 31114U 07010B   20333.49019316  .00000040  00000-0  37143-4 0  9998
2 31114  98.2409 175.2046 0060282 148.0230 212.4629 14.19338357706299
Epoch (UTC): 28 November 2020 11:45:52
Eccentricity: 0.0060282
inclination: 98.2409°
perigee height: 784 km
apogee height: 871 km
right ascension of ascending node: 175.2046°
argument of perigee: 148.0230°
revolutions per day: 14.19338357
mean anomaly at epoch: 212.4629°
orbit number at epoch: 70629

The dashed part of the orbit path shows where the satellite is in the earth's shadow,  

DLR